Location: Unspecified
(51.5147°N, 7.4673°E)
Time: 19:17:42
(UTC+01:00)

Vanguard 1 Rocket - Pass Details

Date: 22 February 2026
Orbit: 653 x 4214 km, 34.3° (Epoch: 12 March)

Event Time Altitude Azimuth Distance (km) Brightness Sun altitude
Rises 17:42:25 0° 265° (W) 5,431 13.4 1.5°
Reaches altitude 10° 17:46:02 10° 255° (WSW) 4,873 13.6 0.9°
Maximum altitude 17:58:15 31° 201° (SSW) 4,634 11.5 -0.9°
Drops below altitude 10° 18:16:32 10° 151° (SSE) 7,254 11.8 -3.7°
Sets 18:23:47 0° 143° (SE) 8,437 12.0 -4.8°
